Regional Weather Roundup
Issued by NWS Kansas City/Pleasant Hill, MO

Home | Current Version | Previous Version | Graphics & Text | Print | Product List | Glossary Off
Versions: 1 2 3 4 5 6 7 8 9 10 11 12 13 14 15 16 17 18 19 20 21 22 23 24 25 26 27 28 29 30 31 32 33 34 35 36 37 38 39 40 41 42 43 44 45 46 47 48 49 50

717
ASUS43 KEAX 220711
RWREAX

WEATHER ROUNDUP FOR EASTERN KANSAS AND NORTHWEST MISSOURI
NATIONAL WEATHER SERVICE KANSAS CITY/PLEASANT HILL MO
200 AM CDT FRI MAY 22 2015

KSZ040-057-103>105-MOZ028-029-037-043-220800-
...KANSAS CITY METROPOLITAN AREA...

CITY           SKY/WX    TMP DP  RH WIND       PRES   REMARKS
K.C. INTL      PTCLDY    52  45  77 SW8       30.23S
K.C. DOWNTOWN  CLEAR     55  47  74 SW3       30.23S
LEES SUMMIT    CLEAR     51  44  77 SW6       30.24S
OLATHE - IXD   PTCLDY    53  45  74 SW5       30.24F
OLATHE - OJC   PTCLDY    54  45  71 SW3       30.23S
LAWRENCE       PTCLDY    47  45  93 N5        30.24S

$$

MOZ001>008-011>017-020>025-030>033-038>040-044>046-053-054-220800-
...NORTHERN AND CENTRAL MISSOURI...

CITY           SKY/WX    TMP DP  RH WIND       PRES   REMARKS
ST. JOSEPH     MOCLDY    52  47  83 S3        30.22R
MOSBY          MOSUNNY   50  48  93 CALM      30.22S
WARRENSBURG    CLEAR     52  45  76 SW6       30.23S
WHITEMAN AFB   CLEAR     51  45  77 SW7       30.22S
CLINTON        CLEAR     52  46  82 CALM      30.24S
SEDALIA        CLEAR     53  45  74 SW8       30.24R
WARSAW         NOT AVBL
CHILLICOTHE      N/A     57  44  62 VRB5      30.21R
KIRKSVILLE     CLEAR     55  45  68 W8        30.18R

$$

MOZ041-047>049-056>058-063>065-088>090-097-220800-
...EASTERN AND SOUTHERN MISSOURI...

CITY           SKY/WX    TMP DP  RH WIND       PRES   REMARKS
ST. LOUIS INTL CLEAR     54  43  66 SW6       30.18S
SPIRIT OF STL  CLEAR     48  45  89 CALM      30.18S
COLUMBIA       CLEAR     52  44  74 SW9       30.21R
JEFFERSON CITY CLEAR     53  45  74 CALM      30.22R
ROLLA          CLEAR     46  42  86 SW9       30.21R
OSAGE BEACH    CLEAR     45  41  87 CALM      30.23S
SPRINGFIELD    CLEAR     46  42  86 CALM      30.22F
BRANSON        CLEAR     48  45  87 CALM      30.23F
JOPLIN         CLEAR     46  45  96 CALM      30.23S

$$

IAZ060-094-KSZ022-034>040-054-083-096-NEZ052-066-093-220800-
...KANSAS...SOUTHEAST NEBRASKA AND IOWA...

CITY           SKY/WX    TMP DP  RH WIND       PRES   REMARKS
TOPEKA         PTCLDY    51  47  86 CALM      30.23F
MANHATTAN      CLEAR     47  45  93 CALM      30.22F
EMPORIA        PTCLDY    50  45  83 CALM      30.21F
CHANUTE        CLEAR     48  46  93 CALM      30.22F
WICHITA        MOCLDY    52  46  80 E6        30.19F
OMAHA          PTCLDY    59  41  51 SW3       30.20R
LINCOLN        PTCLDY    54  42  64 W3        30.23S
FALLS CITY     PTCLDY    51  44  77 NW5       30.20F
LAMONI         CLEAR     56  43  61 W10       30.18R
DES MOINES     CLEAR     55  41  59 W7        30.15R

$$




USA.gov is the U.S. government's official web portal to all federal, state and local government web resources and services.